Location: Colle Santa Colomba
(42.0333°N, 12.5667°E)
Time: 02:56:20
(UTC+00:00)

Cosmos 2322 Rocket - Pass Details

Date: 25 October 2021
Orbit: 832 x 851 km, 71.0° (Epoch: 28 November)

Event Time Altitude Azimuth Distance (km) Brightness Sun altitude
Rises 17:47:35 0° 218° (SW) 3,363 5.9 -18.2°
Reaches altitude 10° 17:50:05 10° 223° (SW) 2,434 5.2 -18.6°
Maximum altitude 17:55:30 51° 299° (WNW) 1,047 3.0 -19.7°
Drops below altitude 10° 18:00:58 10° 15° (NNE) 2,454 4.5 -20.7°
Sets 18:03:30 0° 20° (NNE) 3,394 5.2 -21.1°
